Location: Oshawa
(43.9000°N, 78.8670°W)
Time: 06:22:48
(UTC-05:00)

Cosmos 1500 - Visible Passes

Search period start: 25 November 2017 00:00
Search period end: 05 December 2017 00:00
Orbit: 503 x 522 km, 82.5° (Epoch: 24 November)

Date Brightness Start Highest point End Pass type
(mag) Time Alt. Az. Time Alt. Az. Time Alt. Az.
30 Nov 6.4 06:51:13 10° ESE 06:53:11 14° E 06:55:10 10° NE visible
01 Dec 6.6 06:36:14 10° E 06:37:17 11° E 06:38:20 10° ENE visible
02 Dec 4.5 17:46:38 10° NNE 17:51:49 12° ESE 17:52:18 10° ESE visible
02 Dec 5.1 19:21:50 10° NNW 19:25:38 28° WSW 19:28:27 10° SSW visible
03 Dec 4.7 17:30:57 10° NNE 17:33:24 16° ENE 17:35:50 10° ESE visible
03 Dec 4.7 19:05:42 10° NNW 19:09:12 35° W 19:12:40 10° SSW visible
04 Dec 4.9 17:15:24 10° NE 17:17:18 13° ENE 17:19:11 10° E visible
04 Dec 4.3 18:49:34 10° NNW 18:53:14 45° W 18:56:51 10° SSW visible
